METEOR 2-11 DEB, 40705

Orbit data source: Space-Track

METEOR 2-11 DEB, 40705 is space debris in LEO originally from a launch on Thu, 05 Jul 1984 UTC launched from the Plesetsk Missile And Space Complex (PKMTR). Debris objects in space refer to the collection of defunct objects orbiting the Earth. Examples of debris include non-operational satellites, rocket bodies, and fragments generated from explosions, collisions, or faulty payload assembly.

Loading next visibility...
Identifier
40705, 1984-072G
Orbit
LEO
Country
Flag of CISCIS
Related business
Manufacturer
Unknown
Mission
Spacecraft
Bus & Motor
Unknown
Mass
Unknown
Launch date (UTC)
1984-07-05 (42 years ago)
Launch vehicle
Unknown
Launch site
Plesetsk Missile And Space Complex (PKMTR)
Object type
Payload
Rocket body
Debris
Shape & HBR
Unknown shape, 0.1 m
Radar Cross Section
Small (<0.1 m²)

Expand to show TLE details & history
Last TLE update: 4 days ago

TLE from 4 days ago
0 METEOR 2-11 DEB
1 40705U 84072G   26205.79853997  .00001485  00000-0  10337-2 0  9993
2 40705  82.5202 336.4803 0029488 287.6814  72.1135 13.97949519592597
Epoch: 2026-07-24T19:09Z
TLE epoch observation values (Epoch: 2026-07-24T19:09:53.853Z)
Latitude
-0.00001°
Longitude
106.48591°
Altitude
897.288 km
Speed
7.407 km/s
True Right ascension
22h 25m 55s
True Declination
0° 00' 00"
Sunlit
Object was in full shadow at epoch
Visualization orbit readout
Latitude
Unknown
Longitude
Unknown
Altitude
Unknown
Speed
Unknown
Apparent Right ascension
Unknown
Apparent Declination
Unknown
Sunlit
N/A
Visualization observer readout
Local Sidereal Time
05:26:01
Azimuth
Unknown
Elevation
Unknown
Doppler factor
Unknown
Orbital elements
Apogee altitude
919.494 km
Perigee altitude
876.582 km
Semi-major axis
7,276.175 km
Eccentricity
0.00295
Inclination
82.5202°
RAAN
336.4803°
Arg. of periapsis
287.6814°
True anomaly
72.43544°
Mean anomaly
72.1135°
Eccentric anomaly
72.27443°
Mean motion
3.49694 °/min
Orbital period
102.95 mins
BSTAR
0.0010337
Loading maneuver chart data...
Computing Atmospheric mass density...
Loading historical data...
Loading historical data...
Loading historical data...
Loading historical data...
Loading historical data...
Loading historical data...
Loading historical data...

Documentation

Showing up to 5 results
|